Printer-friendly version

IAU Minor Planet Center

Minor Planet Center

MPEC 2008-T64 : 2008 TC3

The following Minor Planet Electronic Circular may be linked-to from your own Web pages, but must not otherwise be redistributed electronically.


Read MPEC 2008-T63 Read MPEC 2008-T65


M.P.E.C. 2008-T64                                Issued 2008 Oct. 6, 22:49 UT

     The Minor Planet Electronic Circulars contain information on unusual
         minor planets and routine data on comets.  They are published
   on behalf of Commission 20 of the International Astronomical Union by the
          Minor Planet Center, Smithsonian Astrophysical Observatory,
                          Cambridge, MA 02138, U.S.A.

             Prepared using the Tamkin Foundation Computer Network

                              MPC@CFA.HARVARD.EDU
          URL http://www.cfa.harvard.edu/iau/mpc.html  ISSN 1523-6714

                                   2008 TC3

                           Revision to MPEC 2008-T63

Additional Observations:
     K08T03C  C2008 10 06.93516 23 33 54.66 +08 09 05.9          15.3 R ET064952
     K08T03C  C2008 10 06.93659 23 33 58.53 +08 09 18.5          15.1 R ET064952
     K08T03C  C2008 10 06.93664 23 36 38.52 +08 38 48.1          15.7 C ET064J47
     K08T03C  C2008 10 06.93720 23 33 32.89 +08 01 59.4          15.6 R ET064213
     K08T03C  C2008 10 06.93760 23 36 41.64 +08 39 07.4          15.7 C ET064J47
     K08T03C  C2008 10 06.93832 23 33 35.94 +08 02 05.4          15.6 R ET064213
     K08T03C  C2008 10 06.93903 23 36 46.32 +08 39 36.4          15.6 C ET064J47
     K08T03C  C2008 10 06.93969 23 34 07.00 +08 09 44.5          15.3 R ET064952
     K08T03C  C2008 10 06.93994 23 36 49.31 +08 39 54.9          15.6 C ET064J47
     K08T03C  C2008 10 06.94054 23 33 42.14 +08 02 18.4          15.7 R ET064213
     K08T03C  C2008 10 06.94066 23 36 51.71 +08 40 09.5          15.7 C ET064J47
     K08T03C  C2008 10 06.94142 23 36 54.26 +08 40 25.2          15.5 C ET064J47
     K08T03C  C2008 10 06.94207 23 36 56.48 +08 40 38.8          15.6 C ET064J47
     K08T03C  C2008 10 06.94211 23 33 46.62 +08 02 27.4          15.7 R ET064213
     K08T03C  C2008 10 06.94285 23 33 48.76 +08 02 31.3          15.7 R ET064213
     K08T03C  C2008 10 06.94304 23 36 59.80 +08 40 59.3          15.6 C ET064J47
     K08T03C  C2008 10 06.94387 23 37 02.60 +08 41 16.5          15.7 C ET064J47
     K08T03C  C2008 10 06.94468 23 37 05.40 +08 41 33.7          15.6 C ET064J47
     K08T03C  C2008 10 06.94579 23 37 09.29 +08 41 57.3          15.6 C ET064J47
     K08T03C  C2008 10 06.94641 23 37 11.45 +08 42 10.5          15.6 C ET064J47

Observer details:
213 Observatorio Montcabre.  Observer R. Naves.  Measurer M. Campas.  0.30-m
    f/5 Schmidt-Cassegrain.
952 Marxuquera.  Observer J. J. Gomez.  0.36-m f/6.3 Schmidt-Cassegrain + CCD.
J47 Observatorio Nazaret.  Observer G. Muler.  0.30-m Schmidt-Cassegrain + CCD.

Orbital elements:
2008 TC3                                                 Earth MOID = 0.0000 AU
Epoch 2008 Oct. 6.0 TT = JDT 2454745.5                  MPC
M 328.47802              (2000.0)            P               Q
n   0.68818671     Peri.  233.95127     +0.37341078     -0.92761308
a   1.2705698      Node   194.13267     +0.86364741     +0.35152458
e   0.2852233      Incl.    2.32803     +0.33864072     +0.12635051
P   1.43           H   30.4           G   0.15           U   5
Residuals in seconds of arc
081006 G96  0.4+  0.2-    081006 046  0.2-  0.3+    081006 A77  0.4+  0.3+
081006 G96  0.0-  0.2-    081006 046  0.2+  0.4-    081006 213  0.6-  0.2-
081006 G96  0.4-  0.5-    081006 046  0.2+  0.0+    081006 J53  0.3-  0.1-
081006 G96  0.0+  0.3-    081006 046  0.4+  0.1-    081006 A77  0.2-  0.2+
081006 G96  0.0+  0.2-    081006 620  0.1+  0.0+    081006 J53  0.1+  0.1+
081006 G96  0.1-  0.2-    081006 473  0.2-  0.1+    081006 J47  0.1-  0.2+
081006 854  1.1-  0.9+    081006 J75  0.1-  0.1+    081006 A77  1.7-  0.0-
081006 G96  0.0-  0.2-    081006 620  0.3+  0.0-    081006 A77  0.9-  0.0+
081006 854  0.1-  0.3-    081006 046  0.3-  0.3-    081006 A77  1.0-  0.1+
081006 854  0.3-  1.0+    081006 046  0.4+  0.6-    081006 213  0.4-  0.3-
081006 G96  0.2-  0.1-    081006 143  0.2+  0.2-    081006 A77  0.0+  0.2+
081006 G96  0.2+  0.1-    081006 046  0.5+  0.3+    081006 A77  1.4+  0.3+
081006 G96  0.3+  0.3-    081006 046  0.2+  0.2+    081006 213  0.4-  0.1-
081006 G96  0.3+  0.2-    081006 J75  0.7+  0.4+    081006 A77  1.4+  0.6+
081006 G96  0.4+  0.2-    081006 046  0.4+  0.2+    081006 A77  0.8+  0.3+
081006 D90  0.1+  0.3-    081006 046  0.2-  0.1+    081006 J47  0.0-  0.3+
081006 D90  0.0-  0.1+    081006 046  0.0-  0.4+    081006 J47  0.3-  0.0+
081006 D90  0.8-  0.6+    081006 473  0.1+  0.1+    081006 A77  0.8+  0.3+
081006 E12  0.1-  0.5-    081006 213  0.5-  0.5+    081006 J51  0.8-  0.4-
081006 E12  0.0-  0.3-    081006 213  0.4-  0.5+    081006 A77  0.2-  0.2+
081006 E12  0.0+  0.2-    081006 J75  1.2+  0.4+    081006 J51  0.0+  0.0-
081006 E12  0.4+  0.5+    081006 473  0.2-  0.0+    081006 J47  0.1-  0.3+
081006 E12  1.0+  0.0-    081006 046  0.6+  0.4-    081006 J51  0.3+  0.1-
081006 E12  0.1-  0.7-    081006 046  0.4+  0.1-    081006 J47  0.1-  0.0+
081006 E12  0.7-  0.5-    081006 046  0.4+  0.0+    081006 J47  0.1+  0.5+
081006 E12  0.1+  0.6-    081006 J75  0.4+  0.3+    081006 J47  0.2+  0.1+
081006 114  0.5+  0.4+    081006 046  0.9+  0.3-    081006 213  0.5-  0.0-
081006 114  0.0+  0.2+    081006 473  0.1-  0.2-    081006 J47  0.5+  0.0-
081006 114  0.2+  0.8+    081006 213  0.1-  0.2-    081006 J95  0.4-  0.5-
081006 114  0.6+  0.7+    081006 143  0.6+  0.2-    081006 J47  0.5-  0.1-
081006 114  0.8-  0.4+    081006 213  0.1-  0.1-    081006 213  0.3-  0.1-
081006 114  0.5+  0.4+    081006 198  0.1+  0.1+    081006 J47  0.0-  0.0-
081006 114  0.6+  0.6+    081006 198  0.1+  0.1+    081006 J47  0.0+  0.1+
081006 114  0.5+  0.3+    081006 198  0.8-  0.0+    081006 213  0.2-  0.0-
081006 114  0.7+  0.5+    081006 143  0.4+  0.1-    081006 J95  0.5-  0.2-
081006 106  0.0+  0.6-    081006 213  0.2+  0.1-    081006 J47  0.4+  0.5+
081006 106  1.7-  0.1+    081006 198  0.7+  0.0+    081006 J47  0.4+  0.5+
081006 114  0.3+  0.8+    081006 213  0.4-  0.8-    081006 952  0.4+  1.3-
081006 106  1.7-  1.3-    081006 143  0.2+  0.0-    081006 213  0.4-  0.3-
081006 114  0.3+  0.4+    081006 213  0.0+  0.0+    081006 J47  0.2-  0.3+
081006 114  0.6+  0.3+    081006 213  0.1-  0.4-    081006 J47  0.2-  0.3+
081006 114  0.7+  0.4+    081006 J47  0.2-  0.3+    081006 J47  0.1+  0.3+
081006 114  0.0+  0.2+    081006 J47  0.1-  0.3+    081006 J47  0.1+  0.3+
081006 143  0.3-  0.1-    081006 235  1.1+  0.1+    081006 J95  0.5-  0.3-
081006 143  0.1+  0.2-    081006 J47  0.1+  0.5+    081006 952  0.0-  1.3-
081006 143  0.2+  0.3-    081006 213  0.1+  0.1+    081006 473  0.2-  0.2-
081006 143  0.2-  0.2-    081006 J47  0.2+  0.6+    081006 952  0.4+  0.8-
081006 595  0.3-  0.3+    081006 143  0.3+  0.2-    081006 J95  0.5-  0.3-
081006 143  0.0-  0.2-    081006 J47  0.2-  0.3+    081006 473  0.1-  0.1-
081006 620  0.0+  0.3+    081006 J47  0.1+  0.3+    081006 213  0.5-  0.7-
081006 A77 (4.5-  0.6+)   081006 J47  0.2+  0.0+    081006 473  0.2+  0.1-
081006 A77  2.2-  0.2-    081006 143  0.3+  0.3-    081006 473  0.1-  0.4-
081006 595  0.1+  0.9+    081006 J47  0.3+  0.2+    081006 213  0.6-  0.1-
081006 595  0.3-  0.5+    081006 235  1.2+  0.1-    081006 J47  0.2-  0.1+
081006 143  0.0-  0.1-    081006 J47  0.6-  0.1-    081006 A86  1.8+  0.6+
081006 A77  2.1-  0.2-    081006 J47  0.0+  0.0+    081006 A86  1.7+  0.2+
081006 620  0.1+  0.0-    081006 J47  0.2+  0.0-    081006 J47  0.4-  0.2+
081006 620  0.6+  0.1-    081006 143  0.2+  0.1-    081006 213  1.0-  0.2-
081006 620  0.9-  0.2-    081006 J47  0.1+  0.1+    081006 J47  0.1+  0.1-
081006 143  0.1+  0.1-    081006 J47  0.1+  0.3+    081006 J47  0.1+  0.1+
081006 J95  0.2-  0.1-    081006 204  0.3-  0.4-    081006 J47  0.1+  0.2+
081006 J95  0.2-  0.3-    081006 J47  0.3+  0.3+    081006 J47  0.2+  0.2+
081006 J95  0.1+  0.1-    081006 204  0.0-  0.7-    081006 952  0.5-  0.3-
081006 143  0.1+  0.2-    081006 204  0.2-  0.5-    081006 J47  0.2-  0.1+
081006 J95  0.1-  0.4-    081006 J47  0.1+  0.1-    081006 952  0.1-  0.3+
081006 204  0.2-  0.2-    081006 J47  0.4+  0.1+    081006 J47  0.3-  0.0-
081006 J95  0.3+  0.0-    081006 204  0.1-  0.3-    081006 213  0.2-  0.1+
081006 204  0.1-  0.3-    081006 J47  0.0-  0.2-    081006 J47  0.1-  0.1+
081006 204  0.1+  0.2-    081006 204  0.5-  0.2-    081006 213  0.5-  0.4-
081006 204  0.1+  0.2-    081006 J47  0.1-  0.1+    081006 J47  0.0-  0.1+
081006 204  0.0+  0.0-    081006 J47  0.1-  0.2+    081006 952  0.9-  0.1-
081006 204  0.3-  0.3-    081006 J47  0.0-  0.3+    081006 J47  0.3-  0.1+
081006 620  0.4-  0.1-    081006 J47  0.0+  0.2+    081006 213  0.3-  0.2-
081006 143  0.0+  0.2-    081006 J53  0.1+  0.1-    081006 J47  0.2-  0.1-
081006 620  0.4+  0.1-    081006 A77  0.9-  0.1+    081006 J47  0.2-  0.1-
081006 204  0.2-  0.2-    081006 J47  0.1+  0.2+    081006 J47  0.2+  0.0+
081006 204  0.1-  0.2-    081006 A77  1.4-  0.1-    081006 213  0.2-  0.3-
081006 204  0.4-  0.0-    081006 A77  0.5-  0.0+    081006 213  0.1-  0.7-
081006 204  0.1-  0.1-    081006 A77  0.2-  0.4+    081006 J47  0.6+  0.3+
081006 204  0.3-  0.0-    081006 A77  0.9+  0.1+    081006 J47  0.1-  0.0+
081006 620  0.4+  0.0-    081006 J47  0.1+  0.0+    081006 J47  0.0-  0.1+
081006 143  0.1+  0.2-    081006 A77  2.1+  0.2+    081006 J47  0.3+  0.1+
081006 473  0.1-  0.5+    081006 A77  1.8+  0.7+    081006 J47  0.0-  0.0-
081006 046 (4.1+  1.5+)   081006 J47  0.2-  0.0+

